WZZ3198 HEMA-EPGD

Flight info

Callsign WZZ3198
Flight time N/A
Altitude 34000
Route ALKUN DCT LXR DCT AST DCT KUNKI L321 REXUM DCT SOBAX DCT NOGLI DCT ANTAR UN133 GUDIS/N0443F360 UN133 ATFIR DCT ERDOM DCT MEGIK DCT PERIT DCT RAZEC DCT LENOV N133 GRUDA Z95 OSLOG
Aircraft A21N/M-SDE2E3FGHIJ1RWXY/LB1

Departure

Time 2026-05-06 12:21
Airport Marsa Alam International Airport (HEMA)

Arrival

Time N/A
Airport Gdańsk Lech Wałęsa Airport (EPGD)
Time Latitude Longitude Altitude Speed Heading
2026-05-06 11:32 25.55468 34.59084 248 ft 0 kts 60°
2026-05-06 12:14 25.55463 34.59076 247 ft 4 kts 60°
2026-05-06 12:14 25.55452 34.59055 247 ft 4 kts 65°
2026-05-06 12:14 25.55448 34.59028 247 ft 4 kts 103°
2026-05-06 12:14 25.55459 34.59003 247 ft 4 kts 136°
2026-05-06 12:15 25.55480 34.58987 247 ft 4 kts 150°
2026-05-06 12:15 25.55487 34.58982 247 ft 0 kts 150°
2026-05-06 12:17 25.55474 34.58991 247 ft 4 kts 150°
2026-05-06 12:17 25.55436 34.59015 247 ft 8 kts 150°
2026-05-06 12:17 25.55373 34.59055 248 ft 13 kts 150°
2026-05-06 12:18 25.55286 34.59111 248 ft 16 kts 148°
2026-05-06 12:18 25.55186 34.59097 248 ft 18 kts 239°
2026-05-06 12:18 25.55106 34.58999 260 ft 19 kts 163°
2026-05-06 12:18 25.54991 34.59072 260 ft 19 kts 151°
2026-05-06 12:19 25.54873 34.59146 258 ft 20 kts 149°
2026-05-06 12:19 25.54753 34.59224 254 ft 20 kts 150°
2026-05-06 12:19 25.54624 34.59240 256 ft 21 kts 236°
2026-05-06 12:19 25.54576 34.59137 259 ft 10 kts 259°
2026-05-06 12:20 25.54621 34.59075 260 ft 13 kts 330°
2026-05-06 12:20 25.54883 34.58912 263 ft 78 kts 331°
2026-05-06 12:20 25.55547 34.58489 263 ft 139 kts 330°
2026-05-06 12:20 25.56500 34.57882 368 ft 169 kts 331°
2026-05-06 12:21 25.57539 34.57237 874 ft 174 kts 332°
2026-05-06 12:21 25.58628 34.56554 1324 ft 184 kts 332°
2026-05-06 12:21 25.59765 34.55841 1768 ft 193 kts 330°
2026-05-06 12:21 25.60935 34.55047 2207 ft 206 kts 329°
2026-05-06 12:22 25.62253 34.54176 2529 ft 230 kts 329°
2026-05-06 12:22 25.63673 34.53254 2978 ft 246 kts 329°
2026-05-06 12:22 25.65166 34.52291 3672 ft 251 kts 329°
2026-05-06 12:22 25.66687 34.51300 4392 ft 256 kts 327°
2026-05-06 12:23 25.67994 34.49948 5072 ft 261 kts 304°
2026-05-06 12:23 25.68704 34.48098 5714 ft 266 kts 281°
2026-05-06 12:23 25.68854 34.46042 6385 ft 269 kts 272°
2026-05-06 12:23 25.68894 34.43955 7028 ft 273 kts 272°
2026-05-06 12:24 25.68946 34.41843 7668 ft 276 kts 272°
2026-05-06 12:24 25.69010 34.39707 8282 ft 279 kts 272°
2026-05-06 12:24 25.69087 34.37551 8879 ft 281 kts 272°
2026-05-06 12:24 25.69169 34.35379 9461 ft 284 kts 272°
2026-05-06 12:25 25.69256 34.33182 10047 ft 286 kts 271°
2026-05-06 12:25 25.69345 34.30922 10395 ft 300 kts 271°
2026-05-06 12:25 25.69438 34.28565 10688 ft 312 kts 271°
2026-05-06 12:25 25.69536 34.26133 11163 ft 318 kts 271°
2026-05-06 12:26 25.69635 34.23664 11657 ft 325 kts 271°
2026-05-06 12:26 25.69736 34.21133 12166 ft 331 kts 271°
2026-05-06 12:26 25.69840 34.18603 12776 ft 332 kts 271°
2026-05-06 12:26 25.69948 34.16020 13390 ft 332 kts 270°
2026-05-06 12:27 25.70046 34.13482 13953 ft 337 kts 271°
2026-05-06 12:27 25.70153 34.10882 14549 ft 338 kts 271°
2026-05-06 12:27 25.70260 34.08229 15137 ft 342 kts 271°
2026-05-06 12:27 25.70364 34.05585 15723 ft 344 kts 271°
2026-05-06 12:28 25.70469 34.02923 16310 ft 347 kts 271°
2026-05-06 12:28 25.70576 34.00245 16902 ft 349 kts 271°
2026-05-06 12:28 25.70683 33.97545 17477 ft 352 kts 271°
2026-05-06 12:28 25.70789 33.94826 18044 ft 354 kts 271°
2026-05-06 12:29 25.70897 33.92088 18602 ft 356 kts 271°
2026-05-06 12:29 25.71006 33.89328 19147 ft 359 kts 271°
2026-05-06 12:29 25.71110 33.86592 19669 ft 361 kts 271°
2026-05-06 12:29 25.71213 33.83801 20179 ft 363 kts 271°
2026-05-06 12:30 25.71319 33.80998 20682 ft 365 kts 271°
2026-05-06 12:30 25.71428 33.78170 21173 ft 368 kts 271°
2026-05-06 12:30 25.71535 33.75331 21662 ft 370 kts 270°
2026-05-06 12:30 25.71644 33.72469 22133 ft 372 kts 270°
2026-05-06 12:31 25.71750 33.69594 22590 ft 374 kts 270°
2026-05-06 12:31 25.71857 33.66706 23037 ft 376 kts 270°
2026-05-06 12:31 25.71964 33.63804 23469 ft 378 kts 270°
2026-05-06 12:31 25.72073 33.60880 23881 ft 380 kts 270°
2026-05-06 12:32 25.72181 33.57943 24293 ft 382 kts 270°
2026-05-06 12:32 25.72288 33.54993 24705 ft 384 kts 270°
2026-05-06 12:32 25.72394 33.52035 25105 ft 385 kts 270°
2026-05-06 12:32 25.72503 33.49057 25505 ft 386 kts 270°
2026-05-06 12:33 25.72611 33.46079 25902 ft 387 kts 270°
2026-05-06 12:33 25.72717 33.43088 26278 ft 389 kts 270°
2026-05-06 12:33 25.72823 33.40088 26633 ft 390 kts 271°
2026-05-06 12:33 25.72928 33.37076 26977 ft 391 kts 271°
2026-05-06 12:34 25.73031 33.34055 27316 ft 393 kts 271°
2026-05-06 12:34 25.73138 33.31020 27660 ft 394 kts 271°
2026-05-06 12:34 25.73243 33.28028 27975 ft 395 kts 271°
2026-05-06 12:34 25.73348 33.24977 28299 ft 396 kts 271°
2026-05-06 12:35 25.73454 33.21926 28615 ft 397 kts 271°
2026-05-06 12:35 25.73559 33.18864 28918 ft 398 kts 271°
2026-05-06 12:35 25.73661 33.15798 29204 ft 399 kts 271°
2026-05-06 12:35 25.73763 33.12721 29492 ft 399 kts 271°
2026-05-06 12:36 25.73864 33.09634 29769 ft 401 kts 271°
2026-05-06 12:36 25.73964 33.06541 30042 ft 401 kts 271°
2026-05-06 12:36 25.74070 33.03446 30317 ft 403 kts 271°
2026-05-06 12:36 25.74173 33.00338 30573 ft 403 kts 271°
2026-05-06 12:37 25.74276 32.97218 30794 ft 405 kts 271°
2026-05-06 12:37 25.74378 32.94087 31015 ft 406 kts 271°
2026-05-06 12:37 25.74443 32.92014 31172 ft 407 kts 271°
2026-05-06 12:37 25.74571 32.87813 31472 ft 408 kts 271°
2026-05-06 12:38 25.74641 32.85734 31647 ft 407 kts 271°
2026-05-06 12:38 25.74756 32.82598 31936 ft 406 kts 273°
2026-05-06 12:38 25.75134 32.79501 32189 ft 406 kts 281°
2026-05-06 12:38 25.75991 32.76508 32433 ft 408 kts 290°
2026-05-06 12:39 25.77340 32.73718 32652 ft 412 kts 300°
2026-05-06 12:39 25.79096 32.71192 32880 ft 415 kts 305°
2026-05-06 12:39 25.80959 32.68751 33105 ft 414 kts 306°
2026-05-06 12:39 25.82832 32.66310 33317 ft 413 kts 305°
2026-05-06 12:40 25.84675 32.63872 33540 ft 412 kts 305°
2026-05-06 12:40 25.86505 32.61424 33739 ft 411 kts 304°
2026-05-06 12:40 25.88321 32.58979 33949 ft 411 kts 304°
2026-05-06 12:40 25.90149 32.56541 34002 ft 411 kts 305°
2026-05-06 12:41 25.93821 32.51671 33984 ft 411 kts 305°
2026-05-06 12:41 25.97483 32.46803 33973 ft 410 kts 305°
2026-05-06 12:42 26.01120 32.41931 33978 ft 409 kts 305°
2026-05-06 12:42 26.04741 32.37044 33981 ft 409 kts 304°
2026-05-06 12:43 26.08335 32.32202 33989 ft 408 kts 304°
2026-05-06 12:43 26.11952 32.27330 33993 ft 408 kts 304°
2026-05-06 12:44 26.15581 32.22466 33997 ft 409 kts 305°
2026-05-06 12:44 26.19226 32.17608 34002 ft 408 kts 305°
2026-05-06 12:45 26.22849 32.12747 34008 ft 408 kts 305°
2026-05-06 12:46 26.28270 32.05441 34014 ft 407 kts 304°
2026-05-06 12:46 26.31882 32.00559 34017 ft 408 kts 304°
2026-05-06 12:47 26.35486 31.95668 34019 ft 408 kts 304°
2026-05-06 12:47 26.39070 31.90820 34019 ft 408 kts 305°
2026-05-06 12:48 26.42684 31.85940 34023 ft 408 kts 304°
2026-05-06 12:48 26.46285 31.81046 34027 ft 408 kts 304°
2026-05-06 12:49 26.49888 31.76156 34024 ft 408 kts 304°
2026-05-06 12:49 26.53482 31.71264 34034 ft 407 kts 304°
2026-05-06 12:50 26.57086 31.66363 34032 ft 408 kts 304°
2026-05-06 12:50 26.60688 31.61461 34025 ft 408 kts 304°
2026-05-06 12:51 26.64286 31.56547 34028 ft 408 kts 304°
2026-05-06 12:51 26.67883 31.51640 34049 ft 408 kts 304°
2026-05-06 12:52 26.71480 31.46726 34062 ft 408 kts 304°
2026-05-06 12:52 26.75070 31.41813 34073 ft 408 kts 304°
2026-05-06 12:53 26.78659 31.36903 34085 ft 408 kts 304°
2026-05-06 12:53 26.82240 31.31983 34097 ft 407 kts 304°
2026-05-06 12:54 26.85795 31.27091 34112 ft 408 kts 304°
2026-05-06 12:54 26.89384 31.22166 34123 ft 408 kts 304°
2026-05-06 12:55 26.92971 31.17233 34130 ft 408 kts 304°
2026-05-06 12:55 26.96552 31.12301 34136 ft 408 kts 304°
2026-05-06 12:56 27.00133 31.07368 34141 ft 408 kts 304°
2026-05-06 12:56 27.03955 31.02630 34137 ft 415 kts 314°
2026-05-06 12:57 27.08664 30.98788 34141 ft 420 kts 319°
2026-05-06 12:57 27.13449 30.95025 34142 ft 419 kts 319°
2026-05-06 12:58 27.18182 30.91263 34140 ft 418 kts 319°
2026-05-06 12:58 27.22921 30.87485 34139 ft 417 kts 319°
2026-05-06 12:59 27.27663 30.83702 34141 ft 418 kts 319°
2026-05-06 12:59 27.32405 30.79916 34140 ft 417 kts 319°
2026-05-06 13:00 27.37145 30.76127 34140 ft 418 kts 319°
2026-05-06 13:00 27.41891 30.72326 34140 ft 418 kts 319°
2026-05-06 13:01 27.46627 30.68519 34140 ft 418 kts 319°
2026-05-06 13:01 27.51349 30.64742 34140 ft 418 kts 319°
2026-05-06 13:02 27.56093 30.60936 34139 ft 418 kts 319°
2026-05-06 13:02 27.60829 30.57126 34140 ft 418 kts 319°
2026-05-06 13:03 27.65569 30.53309 34143 ft 418 kts 319°
2026-05-06 13:03 27.70306 30.49494 34133 ft 418 kts 319°
2026-05-06 13:04 27.75044 30.45677 34130 ft 418 kts 319°
2026-05-06 13:04 27.79774 30.41856 34130 ft 417 kts 319°
2026-05-06 13:05 27.84495 30.38040 34130 ft 417 kts 319°
2026-05-06 13:05 27.89209 30.34194 34129 ft 418 kts 318°
2026-05-06 13:06 27.93889 30.30367 34130 ft 418 kts 319°
2026-05-06 13:06 27.98617 30.26526 34131 ft 418 kts 319°
2026-05-06 13:07 28.03360 30.22706 34130 ft 418 kts 319°
2026-05-06 13:07 28.08103 30.18887 34123 ft 418 kts 319°
2026-05-06 13:08 28.12831 30.15049 34121 ft 418 kts 319°
2026-05-06 13:08 28.17554 30.11200 34120 ft 418 kts 319°
2026-05-06 13:09 28.22273 30.07347 34121 ft 418 kts 319°
2026-05-06 13:09 28.26997 30.03495 34121 ft 418 kts 319°
2026-05-06 13:10 28.31715 29.99636 34121 ft 418 kts 319°
2026-05-06 13:10 28.36436 29.95772 34120 ft 418 kts 319°
2026-05-06 13:11 28.41156 29.91905 34112 ft 419 kts 319°
2026-05-06 13:11 28.45880 29.88033 34118 ft 419 kts 319°
2026-05-06 13:12 28.50571 29.84183 34119 ft 418 kts 319°
2026-05-06 13:12 28.55294 29.80308 34119 ft 418 kts 319°
2026-05-06 13:13 28.60006 29.76428 34120 ft 418 kts 319°
2026-05-06 13:13 28.64721 29.72544 34120 ft 418 kts 319°
2026-05-06 13:14 28.69432 29.68653 34112 ft 418 kts 319°
2026-05-06 13:14 28.74142 29.64768 34110 ft 418 kts 319°
2026-05-06 13:15 28.78834 29.60894 34111 ft 419 kts 319°
2026-05-06 13:15 28.83546 29.56994 34110 ft 418 kts 319°
2026-05-06 13:16 28.88255 29.53090 34110 ft 418 kts 319°
2026-05-06 13:16 28.92970 29.49182 34111 ft 419 kts 319°
2026-05-06 13:17 28.97680 29.45266 34110 ft 418 kts 319°
2026-05-06 13:17 29.02386 29.41359 34110 ft 418 kts 319°
2026-05-06 13:18 29.07091 29.37442 34111 ft 418 kts 319°
2026-05-06 13:18 29.12138 29.34054 34110 ft 429 kts 334°
2026-05-06 13:18 29.15016 29.33158 34111 ft 439 kts 345°
2026-05-06 13:19 29.18090 29.32889 34113 ft 446 kts 353°
2026-05-06 13:19 29.24315 29.32904 34111 ft 447 kts 354°
2026-05-06 13:20 29.30514 29.32891 34110 ft 443 kts 353°
2026-05-06 13:20 29.36691 29.32848 34112 ft 444 kts 353°
2026-05-06 13:21 29.42868 29.32803 34110 ft 444 kts 353°
2026-05-06 13:21 29.49054 29.32756 34109 ft 444 kts 353°
2026-05-06 13:22 29.55234 29.32710 34104 ft 444 kts 353°
2026-05-06 13:22 29.61411 29.32667 34099 ft 444 kts 353°
2026-05-06 13:23 29.67598 29.32617 34100 ft 444 kts 353°
2026-05-06 13:23 29.73739 29.32570 34121 ft 444 kts 353°
2026-05-06 13:24 29.79927 29.32523 34127 ft 444 kts 353°
2026-05-06 13:24 29.85108 29.32487 34129 ft 444 kts 353°
2026-05-06 13:25 29.91248 29.32436 34131 ft 444 kts 353°
2026-05-06 13:25 29.97433 29.32390 34131 ft 444 kts 353°
2026-05-06 13:26 30.03618 29.32345 34130 ft 444 kts 353°
2026-05-06 13:26 30.09791 29.32298 34130 ft 443 kts 353°
2026-05-06 13:27 30.15920 29.32252 34119 ft 443 kts 353°
2026-05-06 13:27 30.22088 29.32203 34111 ft 443 kts 353°
2026-05-06 13:28 30.28244 29.32157 34110 ft 442 kts 353°
2026-05-06 13:28 30.34404 29.32108 34110 ft 442 kts 353°
2026-05-06 13:29 30.40559 29.32049 34111 ft 442 kts 353°
2026-05-06 13:29 30.46706 29.31994 34111 ft 442 kts 354°
2026-05-06 13:30 30.52855 29.31938 34115 ft 441 kts 354°
2026-05-06 13:30 30.58997 29.31884 34119 ft 441 kts 354°
2026-05-06 13:31 30.65100 29.31828 34120 ft 441 kts 353°
2026-05-06 13:31 30.71233 29.31772 34120 ft 441 kts 353°
2026-05-06 13:32 30.77375 29.31716 34120 ft 440 kts 354°
2026-05-06 13:32 30.83505 29.31660 34120 ft 440 kts 354°
2026-05-06 13:33 30.89636 29.31605 34120 ft 440 kts 353°
2026-05-06 13:33 30.95756 29.31549 34120 ft 439 kts 354°
2026-05-06 13:34 31.01877 29.31493 34121 ft 439 kts 354°
2026-05-06 13:34 31.07989 29.31437 34120 ft 439 kts 354°
2026-05-06 13:35 31.14064 29.31381 34120 ft 439 kts 354°
2026-05-06 13:35 31.20167 29.31326 34120 ft 439 kts 354°
2026-05-06 13:36 31.26272 29.31270 34120 ft 438 kts 354°
2026-05-06 13:36 31.32373 29.31213 34120 ft 438 kts 354°
2026-05-06 13:37 31.38470 29.31157 34120 ft 438 kts 354°
2026-05-06 13:37 31.44561 29.31101 34121 ft 437 kts 354°
2026-05-06 13:38 31.50644 29.31045 34120 ft 437 kts 354°
2026-05-06 13:38 31.56672 29.30563 34121 ft 433 kts 348°
2026-05-06 13:39 31.62716 29.30119 34121 ft 437 kts 353°
2026-05-06 13:39 31.68803 29.30009 34121 ft 437 kts 354°
2026-05-06 13:40 31.74885 29.29952 34121 ft 437 kts 354°
2026-05-06 13:40 31.80970 29.29892 34121 ft 437 kts 354°
2026-05-06 13:41 31.87049 29.29830 34121 ft 436 kts 354°
2026-05-06 13:41 31.93132 29.29768 34121 ft 436 kts 354°
2026-05-06 13:42 31.99196 29.29706 34121 ft 436 kts 354°
2026-05-06 13:42 32.05211 29.29643 34121 ft 434 kts 354°
2026-05-06 13:43 32.11243 29.29580 34120 ft 433 kts 354°
2026-05-06 13:43 32.17278 29.29514 34120 ft 433 kts 353°
2026-05-06 13:44 32.23056 29.28204 34119 ft 417 kts 332°
2026-05-06 13:44 32.28163 29.25029 34122 ft 414 kts 326°
2026-05-06 13:45 32.33202 29.21738 34119 ft 414 kts 327°
2026-05-06 13:45 32.40788 29.16851 34120 ft 414 kts 327°
2026-05-06 13:46 32.45860 29.13586 34121 ft 415 kts 327°
2026-05-06 13:46 32.50940 29.10312 34121 ft 415 kts 327°
2026-05-06 13:47 32.56101 29.07221 34119 ft 418 kts 333°
2026-05-06 13:47 32.61415 29.04439 34119 ft 416 kts 329°
2026-05-06 13:48 32.66531 29.01266 34120 ft 414 kts 327°
2026-05-06 13:48 32.71562 28.98012 34119 ft 414 kts 327°
2026-05-06 13:49 32.76618 28.94731 34121 ft 413 kts 327°
2026-05-06 13:49 32.81669 28.91449 34121 ft 414 kts 327°
2026-05-06 13:50 32.86707 28.88159 34113 ft 413 kts 327°
2026-05-06 13:50 32.91747 28.84857 34111 ft 413 kts 327°
2026-05-06 13:51 32.96782 28.81570 34110 ft 412 kts 327°
2026-05-06 13:51 33.01800 28.78270 34110 ft 411 kts 327°
2026-05-06 13:52 33.06782 28.75001 34111 ft 411 kts 327°
2026-05-06 13:52 33.11797 28.71718 34110 ft 411 kts 327°
2026-05-06 13:53 33.16806 28.68432 34110 ft 411 kts 327°
2026-05-06 13:53 33.21814 28.65161 34110 ft 410 kts 327°
2026-05-06 13:54 33.26817 28.61888 34110 ft 409 kts 327°
2026-05-06 13:54 33.31809 28.58608 34102 ft 409 kts 327°
2026-05-06 13:55 33.36794 28.55324 34101 ft 408 kts 327°
2026-05-06 13:55 33.41730 28.52068 34108 ft 408 kts 327°
2026-05-06 13:56 33.46693 28.48788 34110 ft 407 kts 327°
2026-05-06 13:56 33.51647 28.45510 34111 ft 407 kts 327°
2026-05-06 13:57 33.56596 28.42233 34113 ft 406 kts 327°
2026-05-06 13:57 33.61530 28.38943 34110 ft 406 kts 327°
2026-05-06 13:58 33.66457 28.35652 34110 ft 405 kts 327°
2026-05-06 13:58 33.71380 28.32377 34111 ft 404 kts 327°
2026-05-06 13:59 33.76304 28.29124 34111 ft 403 kts 327°
2026-05-06 13:59 33.81212 28.25856 34111 ft 403 kts 327°
2026-05-06 14:00 33.86097 28.22560 34111 ft 402 kts 327°
2026-05-06 14:00 33.90979 28.19261 34102 ft 402 kts 327°
2026-05-06 14:01 33.95861 28.15958 34100 ft 402 kts 327°
2026-05-06 14:01 34.00735 28.12656 34101 ft 402 kts 327°
2026-05-06 14:02 34.05606 28.09358 34100 ft 402 kts 327°
2026-05-06 14:02 34.10479 28.06052 34101 ft 402 kts 327°
2026-05-06 14:03 34.15318 28.02761 34092 ft 402 kts 327°
2026-05-06 14:03 34.20163 27.99393 34089 ft 400 kts 323°
2026-05-06 14:04 34.24947 27.95970 34085 ft 406 kts 336°
2026-05-06 14:04 34.30180 27.93433 34095 ft 403 kts 330°
2026-05-06 14:05 34.35141 27.90288 34091 ft 402 kts 327°
2026-05-06 14:05 34.40017 27.86972 34092 ft 402 kts 327°
2026-05-06 14:06 34.44863 27.83650 34089 ft 403 kts 327°
2026-05-06 14:06 34.49745 27.80299 34090 ft 403 kts 327°
2026-05-06 14:07 34.54619 27.76949 34091 ft 402 kts 327°
2026-05-06 14:07 34.59477 27.73594 34090 ft 401 kts 327°
2026-05-06 14:08 34.64332 27.70237 34082 ft 401 kts 327°
2026-05-06 14:08 34.69185 27.66877 34080 ft 402 kts 327°
2026-05-06 14:09 34.74011 27.63529 34081 ft 402 kts 327°
2026-05-06 14:09 34.78876 27.60152 34081 ft 402 kts 327°
2026-05-06 14:10 34.82914 27.57344 34082 ft 402 kts 327°
2026-05-06 14:10 34.87776 27.53960 34079 ft 403 kts 327°
2026-05-06 14:11 34.92640 27.50570 34080 ft 403 kts 327°
2026-05-06 14:11 34.97499 27.47177 34082 ft 402 kts 327°
2026-05-06 14:12 35.02357 27.43782 34082 ft 402 kts 327°
2026-05-06 14:12 35.07216 27.40381 34080 ft 402 kts 327°
2026-05-06 14:13 35.12068 27.36980 34078 ft 402 kts 327°
2026-05-06 14:13 35.16917 27.33576 34081 ft 402 kts 327°
2026-05-06 14:14 35.21772 27.30164 34082 ft 402 kts 327°
2026-05-06 14:14 35.26621 27.26750 34082 ft 402 kts 327°
2026-05-06 14:15 35.31467 27.23335 34077 ft 402 kts 327°
2026-05-06 14:15 35.36307 27.19921 34080 ft 402 kts 327°
2026-05-06 14:16 35.41110 27.16421 34080 ft 401 kts 325°
2026-05-06 14:16 35.45958 27.13000 34077 ft 402 kts 328°
2026-05-06 14:17 35.50926 27.09916 34080 ft 403 kts 330°
2026-05-06 14:17 35.55994 27.06945 34083 ft 404 kts 331°
2026-05-06 14:18 35.61092 27.04053 34083 ft 404 kts 332°
2026-05-06 14:18 35.66197 27.01174 34081 ft 404 kts 332°
2026-05-06 14:19 35.71307 26.98287 34088 ft 404 kts 332°
2026-05-06 14:19 35.76409 26.95398 34090 ft 403 kts 332°
2026-05-06 14:20 35.81509 26.92507 34092 ft 403 kts 332°
2026-05-06 14:20 35.86606 26.89612 34092 ft 403 kts 332°
2026-05-06 14:21 35.91702 26.86697 34090 ft 403 kts 332°
2026-05-06 14:21 35.96760 26.83799 34097 ft 403 kts 332°
2026-05-06 14:22 36.01837 26.80883 34100 ft 402 kts 332°
2026-05-06 14:22 36.06894 26.77982 34100 ft 400 kts 332°
2026-05-06 14:23 36.11947 26.75079 34101 ft 400 kts 332°
2026-05-06 14:23 36.16993 26.72158 34101 ft 400 kts 332°
2026-05-06 14:24 36.22036 26.69240 34101 ft 400 kts 332°
2026-05-06 14:24 36.27093 26.66319 34104 ft 401 kts 332°
2026-05-06 14:25 36.32113 26.63424 34110 ft 400 kts 332°
2026-05-06 14:25 36.37163 26.60496 34110 ft 400 kts 332°
2026-05-06 14:26 36.42219 26.57576 34110 ft 400 kts 332°
2026-05-06 14:26 36.47271 26.54645 34110 ft 400 kts 332°
2026-05-06 14:27 36.52316 26.51709 34110 ft 400 kts 332°
2026-05-06 14:27 36.57364 26.48763 34110 ft 400 kts 332°
2026-05-06 14:28 36.62391 26.45824 34110 ft 399 kts 332°
2026-05-06 14:28 36.67415 26.42883 34110 ft 399 kts 332°
2026-05-06 14:29 36.72437 26.39940 34110 ft 399 kts 332°
2026-05-06 14:29 36.77454 26.36994 34111 ft 398 kts 332°
2026-05-06 14:30 36.82468 26.34047 34111 ft 398 kts 332°
2026-05-06 14:30 36.87464 26.31102 34110 ft 397 kts 332°
2026-05-06 14:31 36.92454 26.28152 34110 ft 397 kts 332°
2026-05-06 14:31 36.97410 26.25227 34110 ft 396 kts 332°
2026-05-06 14:32 37.02356 26.22240 34110 ft 394 kts 331°
2026-05-06 14:32 37.07281 26.19225 34111 ft 393 kts 331°
2026-05-06 14:33 37.12198 26.16220 34104 ft 393 kts 331°
2026-05-06 14:33 37.17100 26.13225 34101 ft 391 kts 332°
2026-05-06 14:34 37.21991 26.10229 34100 ft 390 kts 332°
2026-05-06 14:34 37.26866 26.07239 34100 ft 390 kts 332°
2026-05-06 14:35 37.31741 26.04246 34100 ft 389 kts 332°
2026-05-06 14:35 37.36604 26.01253 34101 ft 389 kts 332°
2026-05-06 14:36 37.41463 25.98258 34100 ft 389 kts 332°
2026-05-06 14:36 37.46297 25.95276 34096 ft 389 kts 332°
2026-05-06 14:37 37.51150 25.92275 34089 ft 388 kts 332°
2026-05-06 14:37 37.55992 25.89281 34096 ft 387 kts 332°
2026-05-06 14:38 37.60828 25.86285 34089 ft 387 kts 332°
2026-05-06 14:38 37.65657 25.83288 34077 ft 386 kts 332°
2026-05-06 14:39 37.70442 25.80307 34083 ft 386 kts 332°
2026-05-06 14:39 37.75264 25.77306 34078 ft 386 kts 332°
2026-05-06 14:40 37.80079 25.74302 34081 ft 386 kts 332°
2026-05-06 14:40 37.84886 25.71302 34080 ft 385 kts 332°
2026-05-06 14:41 37.89705 25.68287 34082 ft 386 kts 332°
2026-05-06 14:41 37.94521 25.65268 34081 ft 386 kts 332°
2026-05-06 14:42 37.99345 25.62242 34078 ft 386 kts 332°
2026-05-06 14:42 38.04152 25.59220 34102 ft 385 kts 332°
2026-05-06 14:43 38.08927 25.56214 34112 ft 385 kts 332°
2026-05-06 14:43 38.13718 25.53190 34130 ft 383 kts 332°
2026-05-06 14:44 38.18474 25.50184 34115 ft 384 kts 332°
2026-05-06 14:45 38.25687 25.45620 34084 ft 387 kts 332°
2026-05-06 14:45 38.30505 25.42565 34084 ft 387 kts 332°
2026-05-06 14:46 38.35339 25.39505 34082 ft 388 kts 332°
2026-05-06 14:46 38.40179 25.36438 34081 ft 388 kts 332°
2026-05-06 14:47 38.45023 25.33352 34089 ft 389 kts 332°
2026-05-06 14:47 38.49868 25.30265 34078 ft 390 kts 332°
2026-05-06 14:48 38.54692 25.27188 34079 ft 390 kts 332°
2026-05-06 14:48 38.59554 25.24082 34082 ft 391 kts 332°
2026-05-06 14:49 38.64417 25.20966 34081 ft 391 kts 332°
2026-05-06 14:49 38.69284 25.17845 34080 ft 392 kts 332°
2026-05-06 14:50 38.74160 25.14717 34080 ft 392 kts 332°
2026-05-06 14:50 38.79040 25.11583 34077 ft 393 kts 332°
2026-05-06 14:51 38.83913 25.08433 34071 ft 393 kts 332°
2026-05-06 14:51 38.88801 25.05280 34070 ft 393 kts 332°
2026-05-06 14:52 38.93687 25.02130 34070 ft 393 kts 332°
2026-05-06 14:52 38.98545 24.98986 34070 ft 394 kts 332°
2026-05-06 14:53 39.03442 24.95815 34065 ft 394 kts 332°
2026-05-06 14:53 39.08333 24.92641 34061 ft 393 kts 332°
2026-05-06 14:54 39.13256 24.89542 34061 ft 394 kts 333°
2026-05-06 14:54 39.18190 24.86490 34061 ft 393 kts 333°
2026-05-06 14:55 39.23126 24.83437 34062 ft 393 kts 333°
2026-05-06 14:55 39.28051 24.80374 34060 ft 393 kts 333°
2026-05-06 14:56 39.32991 24.77299 34061 ft 394 kts 333°
2026-05-06 14:56 39.37097 24.74738 34060 ft 394 kts 333°
2026-05-06 14:57 39.42035 24.71658 34061 ft 394 kts 333°
2026-05-06 14:57 39.46976 24.68567 34061 ft 394 kts 333°
2026-05-06 14:58 39.51916 24.65476 34061 ft 394 kts 333°
2026-05-06 14:58 39.56851 24.62382 34060 ft 393 kts 333°
2026-05-06 14:59 39.61739 24.59309 34051 ft 393 kts 333°
2026-05-06 14:59 39.66656 24.56216 34050 ft 393 kts 333°
2026-05-06 15:00 39.71584 24.53115 34052 ft 393 kts 333°
2026-05-06 15:00 39.76501 24.50013 34050 ft 393 kts 333°
2026-05-06 15:01 39.81417 24.46901 34049 ft 393 kts 333°
2026-05-06 15:01 39.86328 24.43780 34050 ft 392 kts 333°
2026-05-06 15:02 39.91237 24.40671 34051 ft 392 kts 333°
2026-05-06 15:02 39.96143 24.37571 34049 ft 392 kts 333°
2026-05-06 15:03 40.01022 24.34476 34050 ft 392 kts 333°
2026-05-06 15:03 40.05925 24.31354 34050 ft 392 kts 333°
2026-05-06 15:04 40.10833 24.28221 34050 ft 392 kts 333°
2026-05-06 15:04 40.15741 24.25088 34051 ft 392 kts 332°
2026-05-06 15:05 40.20642 24.21950 34052 ft 392 kts 332°
2026-05-06 15:05 40.25542 24.18806 34050 ft 392 kts 332°
2026-05-06 15:06 40.30408 24.15677 34052 ft 392 kts 332°
2026-05-06 15:06 40.35331 24.12511 34052 ft 392 kts 333°
2026-05-06 15:07 40.40192 24.09376 34049 ft 391 kts 332°
2026-05-06 15:07 40.45089 24.06195 34049 ft 395 kts 332°
2026-05-06 15:08 40.50023 24.02981 34049 ft 396 kts 332°
2026-05-06 15:08 40.54964 23.99776 34040 ft 396 kts 332°
2026-05-06 15:09 40.59992 23.96770 34033 ft 400 kts 340°
2026-05-06 15:09 40.65481 23.95309 34035 ft 403 kts 347°
2026-05-06 15:10 40.71010 23.94060 34043 ft 403 kts 347°
2026-05-06 15:10 40.76534 23.92764 34045 ft 403 kts 347°
2026-05-06 15:11 40.82054 23.91453 34037 ft 403 kts 347°
2026-05-06 15:11 40.87538 23.90144 34045 ft 402 kts 347°
2026-05-06 15:12 40.93051 23.88825 34037 ft 402 kts 347°
2026-05-06 15:12 40.98563 23.87504 34039 ft 402 kts 347°
2026-05-06 15:13 41.04069 23.86186 34029 ft 402 kts 347°
2026-05-06 15:13 41.09579 23.84861 34028 ft 402 kts 347°
2026-05-06 15:14 41.15087 23.83534 34029 ft 402 kts 347°
2026-05-06 15:14 41.20591 23.82203 34033 ft 402 kts 347°
2026-05-06 15:15 41.26092 23.80868 34026 ft 401 kts 347°
2026-05-06 15:15 41.31592 23.79543 34025 ft 402 kts 347°
2026-05-06 15:16 41.37089 23.78216 34024 ft 401 kts 347°
2026-05-06 15:16 41.42593 23.76901 34025 ft 402 kts 347°
2026-05-06 15:17 41.48113 23.75695 34013 ft 402 kts 348°
2026-05-06 15:17 41.53630 23.74477 34010 ft 401 kts 348°
2026-05-06 15:18 41.59140 23.73246 34009 ft 401 kts 348°
2026-05-06 15:18 41.64657 23.72013 34008 ft 401 kts 348°
2026-05-06 15:19 41.70128 23.70792 34009 ft 401 kts 348°
2026-05-06 15:19 41.75632 23.69556 34004 ft 401 kts 348°
2026-05-06 15:20 41.81144 23.68321 34001 ft 400 kts 348°
2026-05-06 15:20 41.86643 23.67087 34001 ft 400 kts 348°
2026-05-06 15:21 41.92135 23.65849 33995 ft 400 kts 348°
2026-05-06 15:21 41.97627 23.64611 33997 ft 400 kts 348°
2026-05-06 15:22 42.03090 23.63379 33998 ft 401 kts 348°
2026-05-06 15:22 42.08589 23.62133 33991 ft 401 kts 348°
2026-05-06 15:23 42.14093 23.60880 33989 ft 401 kts 347°
2026-05-06 15:23 42.19596 23.59630 33990 ft 401 kts 347°
2026-05-06 15:24 42.25107 23.58377 33985 ft 401 kts 347°
2026-05-06 15:24 42.30614 23.57121 33988 ft 401 kts 347°
2026-05-06 15:25 42.36123 23.55863 33990 ft 402 kts 347°
2026-05-06 15:25 42.41637 23.54597 33991 ft 402 kts 347°
2026-05-06 15:26 42.47166 23.53334 33988 ft 403 kts 347°
2026-05-06 15:26 42.52660 23.52067 33989 ft 403 kts 347°
2026-05-06 15:27 42.58197 23.50791 33988 ft 403 kts 347°
2026-05-06 15:27 42.63729 23.49515 33991 ft 403 kts 347°
2026-05-06 15:28 42.69265 23.48240 33990 ft 404 kts 347°
2026-05-06 15:28 42.74808 23.46958 33991 ft 404 kts 347°
2026-05-06 15:29 42.80356 23.45673 33991 ft 404 kts 347°
2026-05-06 15:29 42.85901 23.44385 33992 ft 404 kts 347°
2026-05-06 15:30 42.91415 23.43106 33991 ft 404 kts 347°
2026-05-06 15:30 42.96957 23.41814 33992 ft 405 kts 347°
2026-05-06 15:31 43.02508 23.40518 33988 ft 404 kts 347°
2026-05-06 15:31 43.08051 23.39217 33982 ft 405 kts 347°
2026-05-06 15:32 43.16390 23.37262 33981 ft 406 kts 347°
2026-05-06 15:32 43.21963 23.35957 33980 ft 406 kts 347°
2026-05-06 15:33 43.27531 23.34644 33979 ft 406 kts 347°
2026-05-06 15:33 43.33100 23.33326 33974 ft 406 kts 347°
2026-05-06 15:34 43.38676 23.32012 33970 ft 406 kts 347°
2026-05-06 15:34 43.44246 23.30693 33974 ft 406 kts 347°
2026-05-06 15:35 43.49783 23.29381 33970 ft 406 kts 347°
2026-05-06 15:35 43.55276 23.27644 33973 ft 404 kts 342°
2026-05-06 15:36 43.60718 23.25660 33964 ft 404 kts 342°
2026-05-06 15:36 43.66165 23.23680 33959 ft 404 kts 342°
2026-05-06 15:37 43.71610 23.21698 33957 ft 404 kts 342°
2026-05-06 15:37 43.77059 23.19709 33967 ft 405 kts 342°
2026-05-06 15:38 43.82507 23.17719 33958 ft 405 kts 342°
2026-05-06 15:38 43.87927 23.15735 33961 ft 405 kts 342°
2026-05-06 15:39 43.93375 23.13744 33961 ft 406 kts 342°
2026-05-06 15:39 43.98843 23.11738 33964 ft 406 kts 342°
2026-05-06 15:40 44.04310 23.09724 33962 ft 407 kts 342°
2026-05-06 15:40 44.09796 23.07699 33963 ft 407 kts 342°
2026-05-06 15:41 44.15247 23.05685 33964 ft 408 kts 342°
2026-05-06 15:41 44.20732 23.03655 33956 ft 408 kts 342°
2026-05-06 15:42 44.26219 23.01620 33955 ft 408 kts 342°
2026-05-06 15:42 44.31720 22.99575 33959 ft 409 kts 342°
2026-05-06 15:43 44.37223 22.97526 33949 ft 409 kts 342°
2026-05-06 15:43 44.42727 22.95470 33955 ft 409 kts 342°
2026-05-06 15:44 44.47309 22.93758 33950 ft 409 kts 342°
2026-05-06 15:44 44.52816 22.91697 33953 ft 410 kts 342°
2026-05-06 15:45 44.58326 22.89631 33948 ft 410 kts 342°
2026-05-06 15:45 44.63841 22.87558 33936 ft 410 kts 342°
2026-05-06 15:46 44.69350 22.85483 33937 ft 410 kts 342°
2026-05-06 15:46 44.74864 22.83399 33936 ft 411 kts 342°
2026-05-06 15:47 44.80354 22.81324 33941 ft 411 kts 342°
2026-05-06 15:47 44.85878 22.79230 33947 ft 411 kts 342°
2026-05-06 15:48 44.91407 22.77133 33937 ft 411 kts 342°
2026-05-06 15:48 44.96938 22.75025 33936 ft 411 kts 341°
2026-05-06 15:49 45.02463 22.72920 33930 ft 411 kts 341°
2026-05-06 15:49 45.07987 22.70812 33931 ft 411 kts 341°
2026-05-06 15:50 45.13512 22.68699 33933 ft 411 kts 341°
2026-05-06 15:50 45.19030 22.66583 33929 ft 411 kts 341°
2026-05-06 15:51 45.24553 22.64460 33933 ft 411 kts 341°
2026-05-06 15:51 45.30075 22.62334 33927 ft 411 kts 341°
2026-05-06 15:52 45.35565 22.60216 33931 ft 412 kts 341°
2026-05-06 15:52 45.41092 22.58080 33930 ft 411 kts 341°
2026-05-06 15:53 45.46615 22.55939 33932 ft 411 kts 341°
2026-05-06 15:53 45.52143 22.53793 33931 ft 411 kts 341°
2026-05-06 15:54 45.57662 22.51647 33929 ft 411 kts 341°
2026-05-06 15:54 45.63181 22.49496 33926 ft 411 kts 341°
2026-05-06 15:55 45.68705 22.47338 33923 ft 411 kts 341°
2026-05-06 15:55 45.74194 22.45191 33921 ft 411 kts 341°
2026-05-06 15:56 45.79713 22.43025 33922 ft 411 kts 341°
2026-05-06 15:56 45.85235 22.40856 33930 ft 411 kts 341°
2026-05-06 15:57 45.90750 22.38684 33931 ft 411 kts 341°
2026-05-06 15:57 45.96268 22.36507 33931 ft 411 kts 341°
2026-05-06 15:58 46.01782 22.34327 33929 ft 411 kts 341°
2026-05-06 15:58 46.07315 22.32135 33931 ft 412 kts 341°
2026-05-06 15:59 46.12851 22.29937 33927 ft 412 kts 341°
2026-05-06 15:59 46.18382 22.27737 33930 ft 412 kts 341°
2026-05-06 16:00 46.23916 22.25531 33929 ft 412 kts 341°
2026-05-06 16:00 46.29411 22.23338 33930 ft 412 kts 341°
2026-05-06 16:01 46.34940 22.21121 33931 ft 412 kts 341°
2026-05-06 16:01 46.40471 22.18896 33931 ft 413 kts 341°
2026-05-06 16:02 46.46005 22.16638 33929 ft 413 kts 340°
2026-05-06 16:02 46.51547 22.14393 33930 ft 413 kts 341°
2026-05-06 16:03 46.57095 22.12164 33932 ft 414 kts 341°
2026-05-06 16:03 46.62661 22.09944 33931 ft 414 kts 341°
2026-05-06 16:04 46.68221 22.07697 33930 ft 415 kts 341°
2026-05-06 16:04 46.73797 22.05433 33931 ft 416 kts 341°
2026-05-06 16:05 46.79379 22.03162 33931 ft 417 kts 341°
2026-05-06 16:05 46.84974 22.00882 33929 ft 417 kts 340°
2026-05-06 16:06 46.90546 21.98603 33929 ft 419 kts 340°
2026-05-06 16:06 46.96168 21.96287 33927 ft 420 kts 340°
2026-05-06 16:07 47.01807 21.93969 33931 ft 421 kts 340°
2026-05-06 16:07 47.07453 21.91644 33930 ft 422 kts 340°
2026-05-06 16:08 47.13114 21.89296 33931 ft 423 kts 340°
2026-05-06 16:08 47.18791 21.86943 33930 ft 424 kts 340°
2026-05-06 16:09 47.24438 21.84622 33931 ft 425 kts 340°
2026-05-06 16:09 47.30149 21.82312 33923 ft 426 kts 340°
2026-05-06 16:10 47.35864 21.79987 33915 ft 426 kts 340°
2026-05-06 16:10 47.41590 21.77649 33915 ft 427 kts 340°
2026-05-06 16:11 47.47328 21.75299 33911 ft 428 kts 340°
2026-05-06 16:11 47.53071 21.72941 33910 ft 428 kts 340°
2026-05-06 16:12 47.58811 21.70578 33914 ft 428 kts 340°
2026-05-06 16:12 47.64557 21.68170 33910 ft 429 kts 340°
2026-05-06 16:13 47.70317 21.65784 33912 ft 430 kts 340°
2026-05-06 16:13 47.76040 21.63387 33908 ft 430 kts 340°
2026-05-06 16:14 47.81803 21.61010 33906 ft 430 kts 341°
2026-05-06 16:14 47.87606 21.58769 33902 ft 431 kts 341°
2026-05-06 16:15 47.93416 21.56546 33897 ft 430 kts 341°
2026-05-06 16:15 47.99166 21.54263 33904 ft 430 kts 340°
2026-05-06 16:16 48.04964 21.51996 33901 ft 431 kts 341°
2026-05-06 16:16 48.10772 21.49710 33900 ft 432 kts 341°
2026-05-06 16:17 48.16591 21.47436 33899 ft 431 kts 341°
2026-05-06 16:17 48.22400 21.45134 33900 ft 431 kts 341°
2026-05-06 16:18 48.28210 21.42836 33893 ft 431 kts 341°
2026-05-06 16:18 48.34006 21.40511 33893 ft 431 kts 340°
2026-05-06 16:19 48.39805 21.38213 33883 ft 431 kts 341°
2026-05-06 16:19 48.45603 21.35902 33880 ft 431 kts 341°
2026-05-06 16:20 48.51376 21.33596 33881 ft 431 kts 341°
2026-05-06 16:20 48.57178 21.31243 33880 ft 431 kts 340°
2026-05-06 16:21 48.62975 21.28902 33881 ft 431 kts 341°
2026-05-06 16:21 48.68757 21.26579 33879 ft 432 kts 341°
2026-05-06 16:22 48.73502 21.24668 33882 ft 432 kts 340°
2026-05-06 16:22 48.79149 21.22380 33882 ft 431 kts 340°
2026-05-06 16:23 48.83970 21.20421 33911 ft 430 kts 340°
2026-05-06 16:23 48.86894 21.19222 33478 ft 430 kts 341°
2026-05-06 16:23 48.89849 21.18024 33482 ft 430 kts 340°
2026-05-06 16:24 48.92697 21.16864 33665 ft 429 kts 340°
2026-05-06 16:24 48.95599 21.15678 33813 ft 430 kts 340°
2026-05-06 16:24 49.01383 21.13305 33896 ft 433 kts 340°
2026-05-06 16:25 49.07187 21.10925 33882 ft 433 kts 340°
2026-05-06 16:25 49.13079 21.08568 33880 ft 435 kts 342°
2026-05-06 16:26 49.18919 21.06431 33877 ft 435 kts 342°
2026-05-06 16:26 49.24798 21.04273 33872 ft 436 kts 342°
2026-05-06 16:27 49.30685 21.02111 33867 ft 436 kts 342°
2026-05-06 16:27 49.36494 20.99477 33871 ft 432 kts 335°
2026-05-06 16:28 49.42186 20.96233 33876 ft 433 kts 335°
2026-05-06 16:28 49.47774 20.93267 33865 ft 435 kts 339°
2026-05-06 16:29 49.52496 20.91124 33732 ft 438 kts 339°
2026-05-06 16:29 49.55417 20.89821 34391 ft 415 kts 339°
2026-05-06 16:29 49.58139 20.88633 35187 ft 398 kts 339°
2026-05-06 16:30 49.60763 20.87511 35798 ft 387 kts 340°
2026-05-06 16:30 49.62480 20.86784 35902 ft 386 kts 340°
2026-05-06 16:30 49.65943 20.85332 36076 ft 385 kts 340°
2026-05-06 16:30 49.68529 20.84256 36184 ft 384 kts 340°
2026-05-06 16:31 49.73682 20.82138 36362 ft 383 kts 340°
2026-05-06 16:31 49.78842 20.80054 36488 ft 383 kts 340°
2026-05-06 16:32 49.84004 20.78003 36594 ft 383 kts 340°
2026-05-06 16:32 49.89168 20.75983 36739 ft 382 kts 341°
2026-05-06 16:33 49.94319 20.73999 36887 ft 381 kts 341°
2026-05-06 16:34 50.02055 20.71080 37054 ft 381 kts 341°
2026-05-06 16:34 50.07216 20.69170 36943 ft 387 kts 341°
2026-05-06 16:35 50.12497 20.67238 36869 ft 392 kts 341°
2026-05-06 16:35 50.17797 20.65324 36862 ft 396 kts 342°
2026-05-06 16:36 50.23240 20.63392 36906 ft 399 kts 342°
2026-05-06 16:36 50.28678 20.61490 36987 ft 401 kts 342°
2026-05-06 16:37 50.33734 20.59746 37174 ft 398 kts 342°
2026-05-06 16:37 50.36461 20.58814 37432 ft 394 kts 342°
2026-05-06 16:37 50.39003 20.57953 37489 ft 394 kts 342°
2026-05-06 16:38 50.44351 20.56172 37593 ft 393 kts 343°
2026-05-06 16:38 50.49593 20.54484 37685 ft 393 kts 344°
2026-05-06 16:39 50.52628 20.53685 37658 ft 397 kts 347°
2026-05-06 16:39 50.56017 20.53049 37558 ft 402 kts 350°
2026-05-06 16:40 50.56493 20.52981 37549 ft 403 kts 350°
2026-05-06 16:40 50.57611 20.52843 37526 ft 405 kts 351°
2026-05-06 16:41 50.60442 20.52617 37493 ft 408 kts 354°
2026-05-06 16:41 50.63075 20.52558 37060 ft 422 kts 356°
2026-05-06 16:41 50.66119 20.52661 36517 ft 441 kts 358°
2026-05-06 16:42 50.71668 20.53324 36565 ft 447 kts
2026-05-06 16:42 50.77018 20.54667 36393 ft 457 kts
2026-05-06 16:42 50.80032 20.55865 36000 ft 460 kts 13°
2026-05-06 16:43 50.82060 20.56888 35721 ft 458 kts 17°
2026-05-06 16:43 50.87851 20.60953 35335 ft 464 kts 25°
2026-05-06 16:43 50.90668 20.63491 35194 ft 466 kts 30°
2026-05-06 16:44 50.93383 20.66367 35137 ft 469 kts 34°
2026-05-06 16:44 50.98386 20.73001 35066 ft 471 kts 43°
2026-05-06 16:45 51.02789 20.80774 35000 ft 473 kts 52°
2026-05-06 16:45 51.06442 20.89432 34934 ft 473 kts 60°
2026-05-06 16:46 51.09257 20.98719 34884 ft 469 kts 69°
2026-05-06 16:46 51.10349 21.03611 34578 ft 466 kts 74°
2026-05-06 16:46 51.11129 21.08472 34694 ft 450 kts 81°
2026-05-06 16:46 51.11387 21.10861 34853 ft 446 kts 85°
2026-05-06 16:47 51.11475 21.11991 35039 ft 438 kts 87°
2026-05-06 16:47 51.11496 21.12311 35112 ft 435 kts 88°
2026-05-06 16:47 51.11524 21.12786 35237 ft 430 kts 89°
2026-05-06 16:48 51.11562 21.13566 35480 ft 421 kts 90°
2026-05-06 16:48 51.11598 21.14631 35884 ft 407 kts 92°
2026-05-06 16:48 51.11619 21.16537 36744 ft 381 kts 96°
2026-05-06 16:48 51.11577 21.19477 37115 ft 373 kts 94°
2026-05-06 16:49 51.11276 21.23952 34536 ft 445 kts 105°
2026-05-06 16:49 51.10444 21.28795 33472 ft 454 kts 112°
2026-05-06 16:49 51.09215 21.33381 32885 ft 447 kts 122°
2026-05-06 16:49 51.07556 21.37470 32350 ft 443 kts 134°
2026-05-06 16:50 51.05225 21.40680 31589 ft 430 kts 156°
2026-05-06 16:50 51.02460 21.42058 30839 ft 415 kts 180°
2026-05-06 16:50 50.99625 21.41495 30070 ft 403 kts 204°
2026-05-06 16:50 50.97350 21.39217 29347 ft 394 kts 227°
2026-05-06 16:51 50.95898 21.35549 28582 ft 391 kts 251°
2026-05-06 16:51 50.95616 21.31265 27837 ft 393 kts 276°
2026-05-06 16:51 50.96520 21.27263 27100 ft 399 kts 300°
2026-05-06 16:51 50.98506 21.24111 26365 ft 407 kts 325°
2026-05-06 16:52 51.01180 21.22560 25629 ft 415 kts 350°
2026-05-06 16:52 51.04043 21.22889 24912 ft 420 kts 14°
2026-05-06 16:52 51.06631 21.25079 24199 ft 423 kts 40°
2026-05-06 16:52 51.08433 21.28723 23496 ft 421 kts 65°
2026-05-06 16:53 51.09147 21.33035 22831 ft 415 kts 89°
2026-05-06 16:53 51.08703 21.37505 22144 ft 406 kts 115°
2026-05-06 16:53 51.07177 21.41168 21456 ft 394 kts 140°
2026-05-06 16:53 51.05486 21.42986 20870 ft 385 kts 160°
2026-05-06 16:54 51.02842 21.43685 19951 ft 377 kts 187°
2026-05-06 16:54 51.00381 21.42590 19046 ft 372 kts 211°
2026-05-06 16:54 50.98446 21.39808 18145 ft 371 kts 236°
2026-05-06 16:54 50.97518 21.35968 17232 ft 375 kts 261°
2026-05-06 16:55 50.97757 21.31876 16390 ft 382 kts 285°
2026-05-06 16:55 50.99129 21.28226 15532 ft 392 kts 310°
2026-05-06 16:55 51.01380 21.25786 14714 ft 401 kts 334°
2026-05-06 16:55 51.04132 21.25000 13887 ft 409 kts 359°
2026-05-06 16:56 51.06863 21.26028 13068 ft 413 kts 24°
2026-05-06 16:56 51.09161 21.28746 12262 ft 413 kts 48°
2026-05-06 16:56 51.10578 21.32654 11457 ft 408 kts 73°
2026-05-06 16:56 51.10887 21.37111 10658 ft 399 kts 98°
2026-05-06 16:57 51.10091 21.41134 9883 ft 388 kts 123°
2026-05-06 16:57 51.08342 21.44253 9105 ft 375 kts 148°
2026-05-06 16:57 51.06014 21.45823 8338 ft 362 kts 173°
2026-05-06 16:57 51.03518 21.45594 7542 ft 352 kts 198°
2026-05-06 16:58 51.01458 21.43690 6782 ft 347 kts 223°
2026-05-06 16:58 51.00166 21.40501 6026 ft 347 kts 249°
2026-05-06 16:58 50.99917 21.36773 5283 ft 350 kts 274°
2026-05-06 16:58 51.00507 21.33830 4727 ft 354 kts 295°
2026-05-06 16:59 51.01053 21.32517 4514 ft 354 kts 304°
2026-05-06 16:59 51.02694 21.30290 3841 ft 359 kts 328°
2026-05-06 16:59 51.05085 21.29197 3154 ft 362 kts 355°